| time (UTC) | temp C | wind direction | speed KPH | gust KPH | rain 1hr cm | rain 24hr cm | rain mn cm | humidity % | barometer mb |
| 20260510204540 | 15 | 306 | 6.4 | 19.3 | 0.00 | 0.18 | 0.18 | 50 | 1010.6 |
| 20260510203037 | 15 | 256 | 9.7 | 29.0 | 0.00 | 0.18 | 0.18 | 50 | 1010.7 |
| 20260510201543 | 15 | 277 | 4.8 | 17.7 | 0.00 | 0.18 | 0.18 | 53 | 1010.5 |
| 20260510200036 | 15 | 302 | 4.8 | 29.0 | 0.00 | 0.18 | 0.18 | 59 | 1010.5 |
| 20260510194542 | 15 | 279 | 4.8 | 16.1 | 0.00 | 0.18 | 0.18 | 65 | 1010.5 |
| 20260510193043 | 14 | 288 | 3.2 | 17.7 | 0.00 | 0.18 | 0.18 | 68 | 1010.7 |
| 20260510191543 | 13 | 0 | 1.6 | 16.1 | 0.00 | 0.18 | 0.18 | 76 | 1011.0 |
| 20260510190049 | 12 | 249 | 9.7 | 19.3 | 0.00 | 0.18 | 0.18 | 75 | 1010.9 |
| 20260510184536 | 12 | 266 | 4.8 | 16.1 | 0.00 | 0.18 | 0.18 | 76 | 1010.9 |
| 20260510183036 | 13 | 286 | 4.8 | 11.3 | 0.00 | 0.18 | 0.18 | 77 | 1010.7 |
| 20260510181546 | 13 | 289 | 8.0 | 16.1 | 0.00 | 0.18 | 0.18 | 80 | 1010.8 |
| 20260510180058 | 13 | 294 | 6.4 | 19.3 | 0.00 | 0.18 | 0.18 | 80 | 1010.8 |
| 20260510174537 | 13 | 191 | 1.6 | 11.3 | 0.05 | 0.18 | 0.18 | 84 | 1010.7 |
| 20260510173046 | 12 | 259 | 6.4 | 19.3 | 0.10 | 0.18 | 0.18 | 87 | 1010.8 |
| 20260510171549 | 12 | 258 | 1.6 | 16.1 | 0.10 | 0.18 | 0.18 | 86 | 1010.8 |
| 20260510170041 | 10 | 0 | 1.6 | 12.9 | 0.10 | 0.18 | 0.18 | 88 | 1010.7 |
| 20260510164551 | 11 | 272 | 3.2 | 12.9 | 0.05 | 0.13 | 0.13 | 88 | 1010.6 |
| 20260510163056 | 12 | 147 | 4.8 | 24.1 | 0.00 | 0.08 | 0.08 | 86 | 1010.3 |
| 20260510161539 | 12 | 146 | 6.4 | 20.9 | 0.03 | 0.08 | 0.08 | 87 | 1010.2 |
| 20260510160038 | 11 | 176 | 6.4 | 17.7 | 0.03 | 0.08 | 0.08 | 87 | 1010.3 |
| 20260510154543 | 12 | 96 | 11.3 | 17.7 | 0.03 | 0.08 | 0.08 | 87 | 1010.2 |
| 20260510153055 | 11 | 142 | 4.8 | 12.9 | 0.03 | 0.08 | 0.08 | 87 | 1010.3 |
| 20260510151538 | 11 | 145 | 3.2 | 8.0 | 0.00 | 0.05 | 0.05 | 86 | 1010.3 |
| 20260510150042 | 10 | 0 | 0.0 | 8.0 | 0.00 | 0.05 | 0.05 | 88 | 1010.2 |
| 20260510144543 | 10 | 150 | 3.2 | 11.3 | 0.00 | 0.05 | 0.05 | 86 | 1010.5 |
| 20260510143057 | 10 | 141 | 1.6 | 4.8 | 0.00 | 0.05 | 0.05 | 87 | 1010.4 |
| 20260510141543 | 10 | 83 | 0.0 | 3.2 | 0.00 | 0.05 | 0.05 | 88 | 1010.4 |
| 20260510140042 | 10 | 0 | 1.6 | 6.4 | 0.00 | 0.05 | 0.05 | 87 | 1010.3 |
| 20260510134541 | 10 | 168 | 4.8 | 11.3 | 0.00 | 0.05 | 0.05 | 87 | 1010.4 |
| 20260510133039 | 10 | 0 | 0.0 | 9.7 | 0.00 | 0.05 | 0.05 | 88 | 1010.1 |
| 20260510131539 | 9 | 0 | 4.8 | 11.3 | 0.00 | 0.05 | 0.05 | 88 | 1010.3 |
| 20260510130039 | 8 | 158 | 4.8 | 14.5 | 0.00 | 0.05 | 0.05 | 88 | 1010.6 |
| 20260510124549 | 8 | 135 | 6.4 | 12.9 | 0.00 | 0.05 | 0.05 | 88 | 1010.3 |
| 20260510123042 | 8 | 136 | 4.8 | 12.9 | 0.00 | 0.05 | 0.05 | 87 | 1010.1 |
| 20260510121539 | 8 | 130 | 3.2 | 17.7 | 0.00 | 0.05 | 0.05 | 85 | 1010.1 |
| 20260510120039 | 8 | 119 | 6.4 | 14.5 | 0.00 | 0.05 | 0.05 | 85 | 1010.2 |
| 20260510114544 | 8 | 153 | 4.8 | 17.7 | 0.00 | 0.05 | 0.05 | 84 | 1010.5 |
| 20260510113036 | 8 | 115 | 4.8 | 12.9 | 0.00 | 0.05 | 0.05 | 84 | 1009.8 |
| 20260510111536 | 7 | 194 | 0.0 | 11.3 | 0.00 | 0.05 | 0.05 | 84 | 1009.8 |
| 20260510110042 | 7 | 117 | 3.2 | 11.3 | 0.03 | 0.05 | 0.05 | 84 | 1009.4 |
| 20260510104545 | 7 | 51 | 0.0 | 9.7 | 0.03 | 0.05 | 0.05 | 84 | 1009.5 |
| 20260510103039 | 7 | 0 | 0.0 | 1.6 | 0.03 | 0.05 | 0.05 | 85 | 1009.5 |
| 20260510101541 | 7 | 0 | 0.0 | 0.0 | 0.03 | 0.05 | 0.05 | 85 | 1009.3 |
| 20260510100059 | 7 | 144 | 3.2 | 9.7 | 0.00 | 0.03 | 0.03 | 85 | 1008.9 |
| 20260510094552 | 7 | 130 | 4.8 | 11.3 | 0.03 | 0.03 | 0.03 | 86 | 1008.8 |
| 20260510093039 | 7 | 0 | 0.0 | 0.0 | 0.03 | 0.03 | 0.03 | 87 | 1009.0 |
| 20260510091539 | 7 | 0 | 0.0 | 1.6 | 0.03 | 0.03 | 0.03 | 88 | 1008.6 |
| 20260510090047 | 7 | 0 | 0.0 | 1.6 | 0.03 | 0.03 | 0.03 | 88 | 1009.0 |
| 20260510084554 | 7 | 0 | 0.0 | 3.2 | 0.00 | 0.00 | 0.00 | 88 | 1009.2 |
| 20260510083045 | 7 | 143 | 0.0 | 3.2 | 0.00 | 0.00 | 0.00 | 88 | 1009.2 |
| 20260510081551 | 7 | 141 | 0.0 | 6.4 | 0.00 | 0.00 | 0.00 | 88 | 1009.1 |
| 20260510080042 | 7 | 159 | 3.2 | 8.0 | 0.00 | 0.00 | 0.00 | 88 | 1009.0 |
| 20260510074540 | 7 | 0 | 0.0 | 6.4 | 0.00 | 0.00 | 0.00 | 88 | 1009.2 |
| 20260510073038 | 7 | 138 | 4.8 | 11.3 | 0.00 | 0.00 | 0.00 | 88 | 1009.3 |
| 20260510071543 | 7 | 123 | 1.6 | 8.0 | 0.00 | 0.00 | 0.00 | 88 | 1009.3 |
| 20260510070047 | 7 | 162 | 3.2 | 8.0 | 0.00 | 0.00 | 0.00 | 88 | 1009.4 |
| 20260510064543 | 7 | 128 | 0.0 | 8.0 | 0.00 | 0.00 | 0.00 | 88 | 1009.1 |
| 20260510063047 | 7 | 0 | 1.6 | 12.9 | 0.00 | 0.00 | 0.00 | 88 | 1009.3 |
| 20260510061539 | 7 | 207 | 1.6 | 11.3 | 0.00 | 0.00 | 0.00 | 88 | 1009.5 |
| 20260510060039 | 7 | 82 | 0.0 | 3.2 | 0.00 | 0.00 | 0.00 | 88 | 1009.2 |
| 20260510054537 | 7 | 182 | 0.0 | 12.9 | 0.00 | 0.00 | 0.00 | 88 | 1009.3 |
| 20260510053038 | 7 | 131 | 3.2 | 12.9 | 0.00 | 0.00 | 0.00 | 88 | 1009.5 |
| 20260510051546 | 7 | 0 | 4.8 | 16.1 | 0.00 | 0.00 | 0.00 | 88 | 1009.7 |
| 20260510050042 | 7 | 129 | 6.4 | 19.3 | 0.00 | 0.00 | 0.00 | 88 | 1009.6 |
| 20260510044540 | 7 | 138 | 8.0 | 20.9 | 0.00 | 0.00 | 0.00 | 88 | 1009.4 |
| 20260510043042 | 7 | 140 | 8.0 | 27.4 | 0.00 | 0.00 | 0.00 | 88 | 1009.3 |
| 20260510041537 | 7 | 109 | 6.4 | 17.7 | 0.00 | 0.00 | 0.00 | 88 | 1009.6 |
| 20260510040056 | 7 | 148 | 9.7 | 19.3 | 0.00 | 0.00 | 0.00 | 88 | 1009.8 |
| 20260510034543 | 7 | 84 | 4.8 | 19.3 | 0.00 | 0.00 | 0.00 | 87 | 1009.3 |
| 20260510033051 | 7 | 127 | 6.4 | 16.1 | 0.00 | 0.00 | 0.00 | 87 | 1009.5 |
| 20260510031539 | 7 | 138 | 9.7 | 16.1 | 0.00 | 0.00 | 0.00 | 87 | 1009.6 |
| 20260510030042 | 7 | 168 | 6.4 | 14.5 | 0.00 | 0.00 | 0.00 | 87 | 1009.7 |
| 20260510024540 | 7 | 121 | 3.2 | 12.9 | 0.00 | 0.00 | 0.00 | 86 | 1009.6 |
| 20260510023037 | 7 | 142 | 3.2 | 12.9 | 0.00 | 0.00 | 0.00 | 86 | 1009.8 |
| 20260510021543 | 7 | 157 | 3.2 | 11.3 | 0.00 | 0.00 | 0.00 | 86 | 1010.0 |
| 20260510020044 | 7 | 140 | 4.8 | 11.3 | 0.00 | 0.00 | 0.00 | 86 | 1009.9 |
| 20260510014545 | 7 | 140 | 4.8 | 14.5 | 0.00 | 0.00 | 0.00 | 85 | 1010.0 |
| 20260510013038 | 7 | 190 | 4.8 | 14.5 | 0.00 | 0.00 | 0.00 | 85 | 1010.3 |
| 20260510011542 | 7 | 126 | 6.4 | 12.9 | 0.00 | 0.00 | 0.00 | 85 | 1010.4 |
| 20260510010038 | 7 | 122 | 3.2 | 12.9 | 0.00 | 0.00 | 0.00 | 85 | 1010.4 |
| 20260510004538 | 7 | 56 | 6.4 | 16.1 | 0.00 | 0.00 | 0.00 | 84 | 1010.1 |
| 20260510003042 | 7 | 134 | 6.4 | 16.1 | 0.00 | 0.00 | 0.00 | 84 | 1010.0 |
| 20260510001542 | 7 | 124 | 6.4 | 17.7 | 0.00 | 0.00 | 0.00 | 84 | 1009.9 |
| 20260510000059 | 7 | 159 | 8.0 | 17.7 | 0.00 | 0.00 | 0.00 | 83 | 1009.7 |
| 20260509234550 | 7 | 142 | 9.7 | 19.3 | 0.00 | 0.00 | 0.00 | 83 | 1009.7 |
| 20260509233036 | 7 | 150 | 4.8 | 16.1 | 0.00 | 0.00 | 0.00 | 82 | 1009.7 |
| 20260509231545 | 7 | 135 | 8.0 | 19.3 | 0.00 | 0.00 | 0.00 | 80 | 1009.8 |
| 20260509230043 | 7 | 166 | 3.2 | 12.9 | 0.00 | 0.00 | 0.00 | 79 | 1009.8 |
| 20260509224541 | 7 | 123 | 8.0 | 16.1 | 0.00 | 0.00 | 0.00 | 78 | 1009.9 |
| 20260509223042 | 7 | 128 | 6.4 | 16.1 | 0.00 | 0.00 | 0.00 | 78 | 1009.9 |
| 20260509221543 | 8 | 158 | 8.0 | 19.3 | 0.00 | 0.00 | 0.00 | 77 | 1010.0 |
| 20260509220039 | 8 | 112 | 6.4 | 16.1 | 0.00 | 0.00 | 0.00 | 77 | 1010.1 |
| 20260509214537 | 8 | 119 | 8.0 | 22.5 | 0.00 | 0.00 | 0.00 | 78 | 1010.2 |
| 20260509213039 | 7 | 112 | 4.8 | 14.5 | 0.00 | 0.00 | 0.00 | 80 | 1010.4 |
| 20260509211540 | 7 | 169 | 8.0 | 14.5 | 0.00 | 0.00 | 0.00 | 81 | 1010.5 |
| 20260509210045 | 7 | 142 | 1.6 | 11.3 | 0.00 | 0.00 | 0.00 | 84 | 1010.5 |